Location: Sihaung
(22.8641°N, 94.0549°E)
Time: 03:04:10
(UTC+00:00)

ATLAS CENTAUR R/B - Pass Details

Date: 03 March 2021
Orbit: 475 x 670 km, 64.7° (Epoch: 30 March)

Event Time Altitude Azimuth Distance (km) Brightness Sun altitude
Exits shadow 22:03:56 48° 101° (E) 792 2.4 -28.2°
Drops below altitude 10° 22:07:36 10° 142° (SE) 1,984 4.5 -27.3°
Sets 22:09:58 0° 147° (SSE) 2,917 5.4 -26.8°
